Location: Hamburg
(53.5500°N, 10.0000°E)
Time: 20:34:04
(UTC+02:00)

ISS - Visible Passes

Search period start: 30 September 2016 00:00
Search period end: 10 October 2016 00:00
Orbit: 400 x 409 km, 51.6° (Epoch: 30 September)

Date Brightness Start Highest point End Pass type
(mag) Time Alt. Az. Time Alt. Az. Time Alt. Az.
30 Sep -1.3 20:25:32 10° S 20:27:02 15° SSE 20:27:02 15° SSE visible
01 Oct -1.0 19:35:10 10° SSE 19:35:41 10° SE 19:36:12 10° SE visible
01 Oct -1.5 21:08:27 10° SW 21:09:57 22° SSW 21:09:57 22° SSW visible
02 Oct -2.1 20:16:40 10° SSW 20:19:25 25° SSE 20:20:03 24° SE visible
02 Oct -0.4 21:52:20 10° WSW 21:52:43 13° WSW 21:52:43 13° WSW visible
03 Oct -1.5 19:25:08 10° SSW 19:27:25 18° SSE 19:29:43 10° ESE visible
03 Oct -2.5 21:00:15 10° WSW 21:02:42 39° SSW 21:02:42 39° SSW visible
04 Oct -2.6 20:08:14 10° SW 20:11:18 38° SSE 20:12:36 26° ESE visible
04 Oct -0.7 21:44:19 10° W 21:45:15 18° WSW 21:45:15 18° WSW visible
05 Oct -3.0 20:52:09 10° WSW 20:55:05 56° SSW 20:55:05 56° SSW visible
06 Oct -3.0 20:00:01 10° WSW 20:03:12 52° SSE 20:04:52 24° E visible
06 Oct -0.9 21:36:18 10° W 21:37:31 21° W 21:37:31 21° W visible
07 Oct -3.2 20:44:04 10° W 20:47:15 62° S 20:47:15 62° S visible
08 Oct -3.2 19:51:52 10° WSW 19:55:05 61° S 19:56:58 22° E visible
08 Oct -1.0 21:28:14 10° W 21:29:37 22° W 21:29:37 22° W visible
09 Oct -3.1 20:35:59 10° W 20:39:11 55° S 20:39:19 55° S visible
